This is the latest recevied weather packets stored in our database for station/object KF4PPJ. If no packets are shown the sender has not sent any weather packets the latest 10 day(s).
| Time | Temp. | Humidity | Pressure | Rain* | Wind** | Luminosity | Snow |
|---|---|---|---|---|---|---|---|
| 1777239530 | 20° C | 26% | 1012.3 hPa | 0 mm | - | 657 W/m² | - |
| 1777239227 | 20° C | 25% | 1012.1 hPa | 0 mm | - | 678 W/m² | - |
| 1777238925 | 20° C | 24% | 1012.1 hPa | 0 mm | - | 665 W/m² | - |
| 1777238622 | 20° C | 23% | 1012.2 hPa | 0 mm | - | 634 W/m² | - |
| 1777238318 | 19.44° C | 23% | 1012.3 hPa | 0 mm | - | 571 W/m² | - |
| 1777238015 | 18.89° C | 24% | 1012.2 hPa | 0 mm | - | 530 W/m² | - |
| 1777237712 | 18.89° C | 25% | 1012.2 hPa | 0 mm | - | 564 W/m² | - |
| 1777237409 | 19.44° C | 26% | 1012.3 hPa | 0 mm | - | 638 W/m² | - |
| 1777237106 | 19.44° C | 26% | 1012.2 hPa | 0 mm | - | 637 W/m² | - |
| 1777236804 | 19.44° C | 26% | 1012.3 hPa | 0 mm | - | 605 W/m² | - |
| 1777236503 | 18.89° C | 28% | 1012.3 hPa | 0 mm | - | 545 W/m² | - |
| 1777236200 | 19.44° C | 26% | 1012.2 hPa | 0 mm | - | 562 W/m² | - |
| 1777235895 | 19.44° C | 27% | 1012.4 hPa | 0 mm | - | 523 W/m² | - |
| 1777235593 | 19.44° C | 26% | 1012.2 hPa | 0 mm | - | 585 W/m² | - |
| 1777235289 | 18.89° C | 28% | 1012.5 hPa | 0 mm | - | 681 W/m² | - |
| 1777234986 | 18.33° C | 27% | 1012.3 hPa | 0 mm | - | 681 W/m² | - |
| 1777234681 | 18.33° C | 27% | 1012.3 hPa | 0 mm | - | 674 W/m² | - |
| 1777234377 | 18.89° C | 27% | 1012.1 hPa | 0 mm | - | 643 W/m² | - |
| 1777234073 | 18.89° C | 26% | 1012.5 hPa | 0 mm | - | 572 W/m² | - |
| 1777233769 | 18.89° C | 26% | 1012.5 hPa | 0 mm | - | 276 W/m² | - |
| 1777233465 | 18.33° C | 27% | 1012.6 hPa | 0 mm | - | 611 W/m² | - |
| 1777233164 | 18.33° C | 27% | 1012.6 hPa | 0 mm | - | 684 W/m² | - |
| 1777232860 | 17.78° C | 29% | 1012.5 hPa | 0 mm | - | 704 W/m² | - |
| 1777232558 | 18.33° C | 29% | 1012.6 hPa | 0 mm | - | 669 W/m² | - |
| 1777232257 | 17.78° C | 30% | 1012.5 hPa | 0 mm | - | 693 W/m² | - |
* Rain latest hour (hover to see other rain measurements)
** Current wind speed in m/s (hover to see current wind gust speed)